Regional Weather Roundup
Issued by NWS

Home | Current Version | Previous Version | Text Only | Print | Product List | Glossary On
Versions: 1 2 3 4 5 6 7 8 9 10 11 12 13 14 15 16 17 18 19 20 21 22 23 24 25 26 27 28 29 30 31 32 33 34 35 36 37 38 39 40 41 42 43 44 45 46 47 48 49 50
590
ASUS44 KJAN 231310
RWRMS

MISSISSIPPI HOURLY WEATHER ROUNDUP
NATIONAL WEATHER SERVICE JACKSON MS
700 AM CST SUN NOV 23 2014

NOTE: "FAIR: INDICATES FEW OR NO CLOUDS BELOW 12,000 FEET WITH NO
SIGNIFICANT WEATHER AND/OR OBSTRUCTIONS TO VISIBILITY.

MSZ001>002-007>008-010>013-018>021-025>028-034>036-231400-
NORTHWEST MISSISSIPPI

CITY           SKY/WX    TMP DP  RH WIND       PRES   REMARKS
CLARKSDALE     CLOUDY    57  57 100 SE13      29.74F
CLEVELAND      DRIZZLE   60  59  99 SE12      29.71F
GREENWOOD      CLOUDY    60  58  92 SE5       29.74F
GREENVILLE     CLOUDY    61  58  90 SE15      29.70F
GRENADA        DRIZZLE   55  55 100 CALM      29.77F
OLIVE BRANCH   CLOUDY    57  57 100 SE14      29.76F
OXFORD         CLOUDY    55  54  94 SE10G20   29.79F FOG
TUNICA         CLOUDY    59  55  88 SE10      29.74F
$$

MSZ003>006-009-014>017-022>024-029>033-037>039-231400-
NORTHEAST MISSISSIPPI

CITY           SKY/WX    TMP DP  RH WIND       PRES   REMARKS
COLUMBUS AFB   LGT RAIN  57  57 100 SE8       29.80F FOG
CORINTH        CLOUDY    57  55  94 SE13      29.79F
GOLDN TRIANGLE CLOUDY    57  55  94 SE12G18   29.80S FOG
STARKVILLE     CLOUDY    55  55 100 SE6       29.79S
TUPELO         CLOUDY    58  55  90 MISG      29.80F FOG
$$

MSZ040-058-231400-
CENTRAL MISSISSIPPI

CITY           SKY/WX    TMP DP  RH WIND       PRES   REMARKS
JACKSON INTL   LGT RAIN  61  59  93 SE10      29.73F
JACKSON HAWKNS LGT RAIN  61  59  93 SE10      29.73F
MERIDIAN KEY   CLOUDY    58  58 100 E3        29.78F FOG
MERIDIAN NAS   FOG       58  57  97 E9        29.79F VSB 1
RAYMOND        LGT RAIN  61  55  82 SE8       29.71F
VICKSBURG      LGT RAIN  61  59  93 SE10      29.68F
$$

MSZ059>079-231400-
SOUTH MISSISSIPPI

CITY           SKY/WX    TMP DP  RH WIND       PRES   REMARKS
BROOKHAVEN     LGT RAIN  61  61 100 E5        29.73F
HATTIESBURG    LGT RAIN  60  60 100 E7        29.75F FOG
MCCOMB         LGT RAIN  61  60  97 E5        29.70F FOG
NATCHEZ        CLOUDY    63  59  88 E16G23    29.63F
PINE BELT      CLOUDY    59  55  88 E6        29.76F VSB 3/4
$$

MSZ080>082-231400-
COASTAL MISSISSIPPI

CITY           SKY/WX    TMP DP  RH WIND       PRES   REMARKS
BAY ST LOUIS   TSTM      66  63  88 CALM      29.73  FOG
BILOXI         LGT RAIN  66  66 100 SE9       29.71F
PASCAGOULA     LGT RAIN  70  69  97 SE7       29.73F
GULFPORT       LGT RAIN  67  66  97 E10       29.70F FOG
$$



USA.gov is the U.S. government's official web portal to all federal, state and local government web resources and services.